Terminal Aerodrome Forecast
Issued by NWS King Salmon, AK

Home | Current Version | Previous Version | Text Only | Print | Product List | Glossary On
Versions: 1 2 3 4 5 6 7 8 9 10 11 12 13 14 15 16 17 18 19 20 21 22 23 24 25 26 27 28 29 30 31 32 33 34 35
000
FTAK31 PANC 192326
TAFAKN
TAF
PAKN 192326Z 2000/2024 33005KT P6SM -SHRA SCT030 OVC050
     FM201400 VRB03KT 2SM BR FEW001 SCT040
     FM201900 01006KT P6SM BKN070=

USA.gov is the U.S. government's official web portal to all federal, state and local government web resources and services.